TAM3390 SBBR-SBCY

Flight info

Callsign TAM3390
Flight time N/A
Altitude 36000
Route SIREM DCT LODOV DCT MABMA DCT BOKIM
Aircraft A321/M-SDE3FGHIRWY/LB1

Departure

Time N/A
Airport Presidente Juscelino Kubitschek International Airport (SBBR)

Arrival

Time 2026-04-21 19:43
Airport Várzea Grande–Marechal Rondon International Airport (SBCY)
Time Latitude Longitude Altitude Speed Heading
2026-04-21 19:32 -16.09057 -55.72936 9253 ft 294 kts 251°
2026-04-21 19:32 -16.09741 -55.74924 8465 ft 291 kts 251°
2026-04-21 19:32 -16.10427 -55.76897 7643 ft 290 kts 251°
2026-04-21 19:32 -16.11102 -55.78866 6842 ft 288 kts 251°
2026-04-21 19:33 -16.11537 -55.80158 6332 ft 286 kts 251°
2026-04-21 19:33 -16.12398 -55.82752 5336 ft 281 kts 251°
2026-04-21 19:33 -16.13025 -55.84657 4601 ft 277 kts 251°
2026-04-21 19:33 -16.13642 -55.86540 3869 ft 273 kts 251°
2026-04-21 19:34 -16.14259 -55.88426 3129 ft 270 kts 251°
2026-04-21 19:34 -16.14852 -55.90255 2893 ft 266 kts 251°
2026-04-21 19:34 -16.15267 -55.92221 2892 ft 270 kts 270°
2026-04-21 19:34 -16.14899 -55.94126 2895 ft 271 kts 295°
2026-04-21 19:35 -16.13739 -55.95724 2896 ft 272 kts 321°
2026-04-21 19:35 -16.10169 -55.96877 2896 ft 273 kts 354°
2026-04-21 19:35 -16.08286 -55.97081 2895 ft 272 kts 354°
2026-04-21 19:36 -16.06397 -55.97288 2897 ft 273 kts 354°
2026-04-21 19:36 -16.04514 -55.97502 2896 ft 273 kts 353°
2026-04-21 19:36 -16.02624 -55.97718 2897 ft 273 kts 353°
2026-04-21 19:36 -16.01350 -55.97860 2894 ft 272 kts 354°
2026-04-21 19:37 -15.99463 -55.98068 2896 ft 273 kts 354°
2026-04-21 19:37 -15.97545 -55.98282 2897 ft 273 kts 353°
2026-04-21 19:37 -15.95656 -55.98496 2897 ft 273 kts 353°
2026-04-21 19:37 -15.93770 -55.98708 2897 ft 273 kts 353°
2026-04-21 19:38 -15.91885 -55.98919 2896 ft 273 kts 353°
2026-04-21 19:38 -15.89997 -55.99130 2896 ft 272 kts 353°
2026-04-21 19:38 -15.88176 -55.99535 2891 ft 255 kts 339°
2026-04-21 19:38 -15.86601 -56.00291 2895 ft 237 kts 332°
2026-04-21 19:39 -15.85156 -56.01086 2900 ft 224 kts 332°
2026-04-21 19:39 -15.83754 -56.01843 2894 ft 219 kts 332°
2026-04-21 19:39 -15.82398 -56.02567 2897 ft 218 kts 332°
2026-04-21 19:39 -15.81034 -56.03293 2897 ft 218 kts 332°
2026-04-21 19:40 -15.79685 -56.04011 2897 ft 218 kts 332°
2026-04-21 19:40 -15.78320 -56.04738 2898 ft 218 kts 332°
2026-04-21 19:40 -15.77016 -56.05431 2870 ft 199 kts 332°
2026-04-21 19:40 -15.75820 -56.06069 2680 ft 184 kts 332°
2026-04-21 19:41 -15.74723 -56.06653 2483 ft 171 kts 332°
2026-04-21 19:41 -15.73669 -56.07214 2249 ft 165 kts 333°
2026-04-21 19:41 -15.72675 -56.07742 2037 ft 157 kts 333°
2026-04-21 19:41 -15.71709 -56.08256 1835 ft 155 kts 333°
2026-04-21 19:42 -15.70757 -56.08763 1630 ft 153 kts 334°
2026-04-21 19:42 -15.69811 -56.09265 1424 ft 151 kts 334°
2026-04-21 19:42 -15.68891 -56.09754 1226 ft 146 kts 333°
2026-04-21 19:42 -15.67982 -56.10247 1064 ft 145 kts 333°
2026-04-21 19:43 -15.67084 -56.10721 836 ft 145 kts 334°
2026-04-21 19:43 -15.66199 -56.11185 640 ft 144 kts 333°
2026-04-21 19:43 -15.65343 -56.11641 603 ft 105 kts 333°
2026-04-21 19:43 -15.64941 -56.11857 608 ft 40 kts 332°
2026-04-21 19:44 -15.64710 -56.11981 625 ft 35 kts 333°
2026-04-21 19:44 -15.64514 -56.12086 630 ft 20 kts 332°
2026-04-21 19:44 -15.64428 -56.12160 624 ft 11 kts 300°
2026-04-21 19:44 -15.64402 -56.12171 631 ft 3 kts 35°
2026-04-21 19:45 -15.64400 -56.12139 632 ft 7 kts 113°
2026-04-21 19:45 -15.64454 -56.12114 630 ft 12 kts 156°
2026-04-21 19:45 -15.64534 -56.12072 629 ft 14 kts 152°
2026-04-21 19:45 -15.64638 -56.12016 622 ft 19 kts 152°
2026-04-21 19:46 -15.64767 -56.11950 615 ft 23 kts 153°
2026-04-21 19:46 -15.64879 -56.11890 615 ft 17 kts 153°
2026-04-21 19:46 -15.64988 -56.11833 621 ft 15 kts 153°
2026-04-21 19:46 -15.65061 -56.11836 616 ft 9 kts 234°
2026-04-21 19:47 -15.65081 -56.11877 605 ft 6 kts 242°
2026-04-21 19:47 -15.65076 -56.11915 609 ft 6 kts 318°
2026-04-21 19:47 -15.65045 -56.11932 617 ft 3 kts 332°
2026-04-21 19:47 -15.65021 -56.11945 611 ft 5 kts 332°
2026-04-21 19:48 -15.65003 -56.11957 605 ft 3 kts 320°
2026-04-21 19:48 -15.65007 -56.11979 605 ft 3 kts 254°
2026-04-21 19:48 -15.65015 -56.11998 613 ft 0 kts 244°
2026-04-21 19:48 -15.65016 -56.12000 614 ft 0 kts 245°